www.pogodaiklimat.ru

Погода и климат >> Архив погоды >> Азербайджан >> Габала


ПОГОДА в Габале

  • Прогноз погоды в Габале
  • Монитор погоды в Габале

АРХИВ ПОГОДЫ в Габале

Время (UTC), дата Ветер
(напр.,м/с)
 
Видим.   Явления Облачность Т
(С)
Тd
(С)
f
(%)
Тe
(С)
Тes
(С)
Комфортность P
(гПа)
Po
(гПа)
Тmin
(С)
Tmax
(С)
R
(мм)
R24
(мм)
S
(см)
18 13.09 В 2 4000 м 10/10 600 м
[Sc]
+16.1 +10.4 69 +16 +16 1023.3 945.1 +22.2
00 14.09 С 2 4000 м 9/9 600 м
[Sc]
+14.5 +10.9 79 +14 +14 1023.8 945.2
06 14.09 З 2 20 км 3/3 1000 м
[Sc]
+17.5 +8.4 55 +18 +23 1023.6 945.7 +12.3 5
12 14.09 ЮЗ 2 20 км 5/5 1000 м
[Sc]
+21.6 +11.5 53 +24 +27 комфорт 1019.9 943.4
18 14.09 СВ 2 4000 м 9/9 600 м
[Sc]
+17.4 +10.9 66 +18 +18 1021.1 943.4 +22.4
00 15.09 С 2 20 км ясно +13.4 +9.3 76 +13 +13 1020.7 942.0
06 15.09 С 2 50 км ясно +18.5 +10.5 60 +19 +27 1020.3 943.0 +13.2
12 15.09 Ю 4 50 км ясно +23.3 +12.9 52 +26 +30 жарко 1017.4 941.5
18 15.09 С 2 4000 м 6/6 600 м
[Sc]
+17.7 +12.7 73 +18 +18 1021.6 944.0 +24.0
00 16.09 С 2 4000 м 10/10 600 м
[Sc]
+16.3 +13.0 81 +16 +16 1022.7 944.6
03 16.09 В 2 10 км гроза без осадков 10/10 600 м
[Cb calv]
+16.3 +13.0 81 +16 +16 1022.4 944.4
06 16.09 СВ 2 10 км 9/9 600 м
[Sc]
+19.3 +13.5 69 +21 +22 комфорт 1020.2 943.2 +16.1
12 16.09 Ю 4 20 км 3/3 1000 м
[Sc]
+24.9 +17.4 63 +29 +32 душно 1016.0 940.7
18 16.09 З 2 4000 м 10/10 600 м
[Sc]
+20.5 +15.5 73 +24 +24 комфорт 1015.3 939.0 +25.0
00 17.09 Ю 2 4000 м 10/10 600 м
[Sc]
+18.3 +16.9 92 +19 +19 1013.2 936.5
03 17.09 В 2 20 км {дождь} 4/4 1000 м
[Sc]
+16.3 +14.6 90 +16 +16 1013.5 936.2
06 17.09 Ю 2 20 км 4/4 1000 м
[Sc]
+20.9 +16.3 75 +25 +29 комфорт 1012.3 936.3 +16.1 1
12 17.09 З 2 10 км 3/3 600 м
[Sc]
+27.7 +17.0 52 +32 +36 очень
душно
1007.2 933.3
18 17.09 В 2 20 км ясно +21.1 +14.9 68 +24 +24 комфорт 1009.7 933.9 +28.5
00 18.09 В 2 4000 м 3/3 600 м
[Sc]
+15.5 +14.1 91 +15 +15 1012.8 935.4
06 18.09 Ю 2 50 км ясно +21.6 +13.4 60 +24 +31 комфорт 1014.9 938.8 +15.3
12 18.09 Ю 2 20 км 3/3 1000 м
[Sc]
+27.5 +11.2 36 +28 +32 жарко 1013.8 939.2
15 18.09 ЮЗ 2 50 км ясно +21.8 +10.0 47 +23 +23 комфорт 1015.5 939.3
18 18.09 СВ 4 20 км ясно +19.4 +9.4 52 +20 +20 1017.7 940.7 +28.2
00 19.09 В 2 20 км ясно +18.1 +4.8 41 +19 +19 1015.5 938.4
06 19.09 В 2 50 км ясно +23.5 +11.9 48 +25 +32 комфорт 1014.5 938.9 +15.3
12 19.09 Ю 2 50 км ясно +28.9 +12.1 35 +30 +35 жарко 1012.9 938.7
18 19.09 В 4 20 км ясно +21.1 +14.5 66 +24 +24 комфорт 1018.5 942.1 +29.5
00 20.09 В 2 20 км ясно +18.1 +12.7 71 +19 +19 1018.4 941.2
06 20.09 СЗ 2 10 км 10/10 600 м
[Sc]
+17.5 +17.5 100 +18 +18 1018.5 941.2 +14.7
12 20.09 З 2 20 км 4/4 1000 м
[Sc]
+24.2 +14.4 54 +27 +30 жарко 1012.3 937.0

 

Местоположение метеостанции Габала (Азербайджан): широта 40.98 долгота 47.87 высота над уровнем моря 682 м.

В архиве по умолчанию представлена погода в Габале за последнюю неделю. Архивные данные за месяц целиком и за предыдущие месяцы, начиная с января 2011 года, Вы можете получить, выбрав интересующий диапазон дат из раскрывающегося списка и нажав кнопку "Ввод!".


*Определитесь, кто Вы:
робот инопланетянин человек

Внимание! Время в таблицах - всемирное. Для получения местного времени необходимо прибавить поправку, которая равна 4 ч.

Смотрите также архив погоды в соседних городах и на ближайших метеорологических станциях:

Погода в Геокчае (Азербайджан) (38 км)
Погода в Ахты (Дагестан, Россия) (55 км)
Погода в Шеках (Азербайджан) (64 км)
Погода в Губе (Азербайджан) (70 км)
Погода в Евлахе (Азербайджан) (73 км)
Погода в Шемахе (Азербайджан) (75 км)
Погода в Курдамире (Азербайджан) (77 км)
Погода в Касумкенте (Дагестан, Россия) (80 км)
Погода в Барде (Азербайджан) (92 км)
Погода в Маразе (Азербайджан) (102 км)

Пояснения к столбцам:

Ветер - указаны скорость ветра в м/с - средняя за 10 мин, порывы в срок и между сроками (в фигурных скобках) и направление, откуда дует ветер: С - северный, СВ - северо-восточный, В - восточный, ЮВ - юго-восточный, Ю - южный, ЮЗ - юго-западный, З - западный, СЗ - северо-западный.
Видимость - горизонтальная дальность видимости в метрах или километрах. При видимости от 1 до 10 км при отсутствии осадков обычно наблюдается дымка, при ухудшении видимости до 1 км и менее - туман. В сухую погоду видимость может ухудшаться дымом, пылью или мглою.
Явления - указаны атмосферные явления, наблюдавшиеся в срок или в последний час перед сроком; фигурными скобками обозначены явления, наблюдавшиеся между сроками (за 1-3 часа до срока); квадратными скобками обозначены град или гололедные отложения с указанием их диаметра в мм.
Облачность - указаны через наклонную черту общая и нижняя облачность в баллах и высота нижней границы облаков в метрах; квадратными скобками обозначены формы облаков: Ci - перистые, Cs - перисто-слоистые, Cc - перисто-кучевые, Ac - высококучевые, As - высокослоистые, Sc - слоисто-кучевые, Ns - слоисто-дождевые, Cu - кучевые, Cb - кучево-дождевые. Подробнее классификацию облаков см. в Атласе облаков (PDF).
T - Температура воздуха - температура, измеренная на высоте 2 м над землей.
Td - Температура точки росы - температура, при понижении до которой содержащийся в воздухе водяной пар достигнет насыщения.
f - Относительная влажность воздуха - влажноcть воздуха, измеренная на высоте 2 м над землей.
Te - Эффективная температура - температура, которую ощущает одетый по сезону человек в тени. Характеристика душности погоды. При расчете учитывается влияние влажности воздуха и скорости ветра на теплоощущения человека.
Tes - Эффективная температура на солнце - температура, которую ощущает человек, с поправкой на солнечный нагрев. Характеристика знойности погоды. Зависит от высоты солнца над горизонтом, облачности и скорости ветра. Ночью, в пасмурную погоду, а также при ветре 12 м/с и более поправка равна нулю.
P - Атмосферное давление - приведенное к уровню моря атмосферное давление.
Po - Атмосферное давление - измеренное на уровне метеостанции атмосферное давление.
Tmin - Минимальная температура - минимум температуры воздуха на высоте 2 м над землей.
Tmax - Максимальная температура - максимум температуры воздуха на высоте 2 м над землей.
R - Количество осадков - Количество выпавших осадков за период времени, мм. При наведении курсора мыши на число - период времени, за который выпало указанное количество осадков.
R24 - Количество осадков - Количество выпавших осадков за 24 часа, мм.
S - Снежный покров - Высота снежного покрова, см. При наведении курсора мыши на число - состояние снежного покрова и степень покрытия местности в баллах.